Regional Weather Roundup
Issued by NWS

Home | Current Version | Previous Version | Text Only | Print | Product List | Glossary On
Versions: 1 2 3 4 5 6 7 8 9 10 11 12 13 14 15 16 17 18 19 20 21 22 23 24 25 26 27 28 29 30 31 32 33 34 35 36 37 38 39 40 41 42 43 44 45 46 47 48 49 50
733
ASUS45 KSLC 291510
RWRUT

UTAH REGIONAL WEATHER ROUNDUP
NATIONAL WEATHER SERVICE SALT LAKE CITY UT
900 AM MDT FRI JUL 29 2016

UTZ001>011-023>025-291600-

NORTHERN UTAH

CITY           SKY/WX    TMP DP  RH WIND       PRES   REMARKS
BRIGHAM CITY     N/A     71  44  37 CALM      30.09R
HILL AFB       SUNNY     73  38  28 E20       30.10R
LOGAN          SUNNY     68  41  37 NW3       30.10S
OGDEN          SUNNY     77  39  25 VRB3      30.08R
PROVO AIRPORT  MOSUNNY   73  41  31 VRB3      30.11R
SALT LAKE CITY MOSUNNY   85  40  20 S9        30.06R
VERNAL         SUNNY     77  33  20 SW7       30.17R
WENDOVER       SUNNY     84  39  20 CALM      30.07S
HEBER CITY     SUNNY     64  39  39 CALM      30.20S
WEST JORDAN    SUNNY     79  45  29 S8        30.10R

$$

UTZ012>022-026-027-291600-

SOUTHERN/CENTRAL UTAH

CITY           SKY/WX    TMP DP  RH WIND       PRES   REMARKS
BLANDING       SUNNY     82  38  21 CALM      30.25S
BRYCE CANYON   MOSUNNY   69  39  33 W6        30.36R
CEDAR CITY     MOSUNNY   77  42  28 NE5       30.17R
DELTA          MOSUNNY   79  34  19 SE3       30.09S
MILFORD        PTSUNNY   76  44  32 S8        30.11R
MOAB/CYNLANDS  SUNNY     85  29  13 CALM      30.06R
PRICE          SUNNY     80  32  17 CALM      30.19R
ST GEORGE      SUNNY     86  45  23 SE7       29.98R

$$

REGIONAL REPORTS     COLORADO/ARIZONA

CITY           SKY/WX    TMP DP  RH WIND       PRES   REMARKS
CRAIG, CO      SUNNY     63  40  42 CALM      30.27S
GRAND JUNCTION SUNNY     78  38  23 SE7       30.12R
RIFLE          SUNNY     69  40  34 CALM      30.20F
MONTROSE       CLOUDY    76  39  26 W6        30.20S
CORTEZ         SUNNY     73  40  30 CALM      30.20S
PAGE, AZ       MOSUNNY   87  40  19 N8        30.04R
GRAND CANYON   MOSUNNY   74  48  39 CALM      30.28R HAZE
KINGMAN        MOSUNNY   90  47  22 CALM      30.01R
FLAGSTAFF      MOSUNNY   72  46  39 SW7       30.29S

$$

REGIONAL REPORTS    NEVADA/IDAHO/WYOMING

CITY           SKY/WX    TMP DP  RH WIND       PRES   REMARKS
LAS VEGAS, NV  PTSUNNY   97  48  18 CALM      29.83R HX  93
ELY            PTSUNNY   72  40  31 S8        30.24R
ELKO           SUNNY     73  35  25 CALM      30.15S
POCATELLO, ID  SUNNY     73  46  38 W7        30.11R
BURLEY         SUNNY     67  50  54 E3        30.07R
EVANSTON, WY   SUNNY     65  30  27 S5        30.30S
ROCK SPRINGS   SUNNY     65  47  52 E5        30.28F
KEMMERER         N/A     64  43  45 CALM      30.31S

$$




USA.gov is the U.S. government's official web portal to all federal, state and local government web resources and services.